Погода в Шекаловке

Россия / Воронежская область     50°02′45″N   39°18′07″E
темп.,
°C
ветер,
м/с
пор.,
м/с
влажн.,
%
обл.,
%
осадки,
мм/ч
давл.,
гПа
погр.,
м
4 июля, пн
пн400:00+17сз34870 0.5 101563
03:00+17сз338566 0.5 101545
06:00+18сз248534 0.0 1015103
09:00+24ссз45645 0.0 1015572
12:00+27с57480 0.0 10151573
15:00+28с4644100 0.0 10142643
18:00+24в22636 0.0 101413
21:00+20вюв117611 0.0 101411
5 июля, вт
вт500:00+19всв22795 0.1 101513
03:00+17вюв118310 0.1 101611
06:00+19в127819 0.0 101668
09:00+24юв23590 0.0 1017597
12:00+27в22410 0.0 10171839
15:00+29св323732 0.0 10162554
18:00+27всв45472 0.0 1016433
21:00+22вюв355877 0.0 101686
6 июля, ср
ср600:00+20юв226043 0.0 101716
03:00+18ю226047 0.0 101733
06:00+19ююв226223 0.0 101860
09:00+24ю344520 0.0 1018480
12:00+28юз12374 0.0 10181675
15:00+30зсз023444 0.0 10162567
18:00+26всв2450100 0.0 1016109
21:00+24вюв364747 0.0 1016113
7 июля, чт
чт700:00+20ююв411490 0.0 1017230
03:00+18ююв37450 0.0 1017106
06:00+18ююв37480 0.0 1017134
09:00+25ююв45350 0.0 1017597
12:00+28юв34280 0.0 10171797
15:00+30вюв34230 0.0 10162440
18:00+28в46340 0.0 1015296
21:00+21вюв47430 0.0 101588
8 июля, пт
пт800:00+19вюв33460 0.0 101629
03:00+18вюв33490 0.0 101622
06:00+19вюв35550 0.0 101692
09:00+26юв35360 0.0 1016567
12:00+30юв46260 0.0 10162782
15:00+31вюв45243 0.0 10143129
18:00+30в363487 0.0 1014345
21:00+23вюв354022 0.0 101467